Karpathos, Greece

7:29 PM EEST on September 27, 2016 (GMT +0300)
Karpathos

Weather History for LGKP - November, 2011

Change the Weather History Date:

Sunday, November 20, 2011

  Actual Average Record
Temperature  
Mean Temperature 60 °F -  
Max Temperature 64 °F - - ()
Min Temperature 57 °F - - ()
Degree Days  
Heating Degree Days 4    
Growing Degree Days 10 (Base 50)    
Moisture  
Dew Point 45 °F    
Average Humidity 58    
Maximum Humidity 67    
Minimum Humidity 52    
Precipitation  
Precipitation 0.00 in - - ()
Sea Level Pressure  
Sea Level Pressure 30.05 in    
Wind  
Wind Speed 21 mph ()    
Max Wind Speed 31 mph    
Max Gust Speed 38 mph    
Visibility 6.2 miles    
Events      
T = Trace of Precipitation, MM = Missing Value Source: Averaged Metar Reports

Daily Weather History Graph

Daily Weather History Graph

Search for Another Location

Airport or City:

Trip Planner

Search our weather history database for the weather conditions in past years. The results will help you decide how hot, cold, wet, or windy it might be!

Date:

Astronomy

Nov. 20, 2011 Rise Set
Actual Time 6:51 AM EET 5:02 PM EET
Civil Twilight 6:23 AM EET 5:29 PM EET
Nautical Twilight 5:52 AM EET 6:00 PM EET
Astronomical Twilight 5:22 AM EET 6:31 PM EET
Moon 1:08 AM EET (11/20) 1:31 PM EET (11/20)
Length of Visible Light 11h 06m
Length of Day
10h 11m
Waning Crescent, 30% of the Moon is Illuminated
Nov 20
Waning Crescent
Nov 25
New
Dec 2
First Quarter
Dec 10
Full
Dec 18
Last Quarter

Hourly Weather History & Observations

Time (EET) Temp. Dew Point Humidity Pressure Visibility Wind Dir Wind Speed Gust Speed Precip Events Conditions
2:20 AM 57.2 °F 42.8 °F 59% 30.04 in - NNW 19.6 mph - N/A   Clear
7:50 AM 59.0 °F 46.4 °F 63% 30.04 in 6.2 mi NNW 29.9 mph - N/A   Scattered Clouds
8:20 AM 59.0 °F 46.4 °F 63% 30.04 in 6.2 mi NNW 27.6 mph - N/A   Scattered Clouds
8:50 AM 60.8 °F 46.4 °F 59% 30.06 in 6.2 mi NNW 27.6 mph - N/A   Scattered Clouds
9:20 AM 60.8 °F 46.4 °F 59% 30.06 in 6.2 mi NNW 27.6 mph - N/A   Scattered Clouds
9:50 AM 62.6 °F 46.4 °F 55% 30.06 in 6.2 mi NNW 27.6 mph - N/A   Scattered Clouds
10:20 AM 62.6 °F 46.4 °F 55% 30.06 in 6.2 mi NNW 26.5 mph 38.0 mph N/A   Partly Cloudy
10:50 AM 60.8 °F 46.4 °F 59% 30.06 in 6.2 mi NNW 27.6 mph - N/A   Partly Cloudy
11:20 AM 62.6 °F 44.6 °F 52% 30.06 in 6.2 mi NNW 26.5 mph - N/A   Partly Cloudy
11:50 AM 62.6 °F 44.6 °F 52% 30.04 in 6.2 mi NNW 28.8 mph - N/A   Partly Cloudy
12:20 PM 62.6 °F 46.4 °F 55% 30.04 in 6.2 mi NNW 27.6 mph - N/A   Partly Cloudy
12:50 PM 62.6 °F 44.6 °F 52% 30.04 in 6.2 mi NNW 28.8 mph - N/A   Partly Cloudy
1:20 PM 64.4 °F 46.4 °F 52% 30.04 in 6.2 mi NNW 31.1 mph - N/A   Partly Cloudy
2:20 PM 62.6 °F 46.4 °F 55% 30.04 in 6.2 mi NNW 26.5 mph - N/A   Scattered Clouds
2:50 PM 62.6 °F 44.6 °F 52% 30.04 in 6.2 mi NNW 24.2 mph - N/A   Partly Cloudy
3:20 PM 62.6 °F 44.6 °F 52% 30.04 in 6.2 mi NNW 21.9 mph - N/A   Partly Cloudy
3:50 PM 60.8 °F 46.4 °F 59% 30.04 in 6.2 mi NNW 19.6 mph - N/A   Scattered Clouds
4:20 PM 59.0 °F 42.8 °F 55% 30.06 in 6.2 mi NNW 20.7 mph - N/A   Scattered Clouds
4:50 PM 59.0 °F 44.6 °F 59% 30.06 in 6.2 mi NNW 17.3 mph - N/A   Partly Cloudy
5:20 PM 59.0 °F 44.6 °F 59% 30.06 in 6.2 mi NNW 15.0 mph - N/A   Partly Cloudy
5:50 PM 59.0 °F 44.6 °F 59% 30.06 in 6.2 mi NNW 11.5 mph - N/A   Partly Cloudy
6:20 PM 57.2 °F 46.4 °F 67% 30.06 in 6.2 mi NNW 15.0 mph - N/A   Partly Cloudy
6:50 PM 57.2 °F 46.4 °F 67% 30.06 in 6.2 mi NNW 12.7 mph - N/A   Partly Cloudy
7:50 PM 57.2 °F 44.6 °F 63% 30.06 in 6.2 mi North 11.5 mph - N/A   Partly Cloudy